Terug naar catalogus

COSMOS 2251 DEB

ActiefLEO
NORAD 36045·DEBRIS·🇷🇺 Russia

Gelanceerd Jun 16, 1993 vanaf Plesetsk Cosmodrome

Loading…

Volgende Passages (komende 24 uur)

TLE

VerouderdSource: Space-Track

Epoch: Sep 8, 2026, 06:20 UTC

1 36045U 93036AXG 26251.26437041  .00008348  00000-0  11924-2 0  9994
2 36045  73.7587 244.8440 0045716 217.7472 142.0492 14.76110994123589

Volg COSMOS 2251 DEB in realtime met AllMySat

Download on the App Store